Regional Weather Roundup
Issued by NWS

Home | Current Version | Previous Version | Text Only | Print | Product List | Glossary Off
Versions: 1 2 3 4 5 6 7 8 9 10 11 12 13 14 15 16 17 18 19 20 21 22 23 24 25 26 27 28 29 30 31 32 33 34 35 36 37 38 39 40 41 42 43 44 45 46 47 48 49 50

000
ASUS43 KLOT 312206
RWRIL

ILLINOIS REGIONAL WEATHER ROUNDUP
NATIONAL WEATHER SERVICE CHICAGO/ROMEOVILLE IL
500 PM CDT FRI OCT 31 2014

NOTE: "FAIR" INDICATES FEW OR NO CLOUDS BELOW 12,000 FEET WITH NO
SIGNIFICANT WEATHER AND/OR OBSTRUCTIONS TO VISIBILITY.

* THESE STATIONS ARE NOT UNDER NWS QUALITY CONTROL. THEY ALSO MAY NOT
  REPORT WEATHER SUCH AS PRECIPITATION OR FOG.

ILZ001-002-007-009-015-016-024-312300-
NORTHWEST ILLINOIS

CITY           SKY/WX    TMP DP  RH WIND       PRES   REMARKS
MOLINE         PTCLDY    42  18  37 N15G24    30.36R
STERLING*      MOCLDY    39  18  41 N21G29    30.36R WCI  29
SAVANNA*       PTCLDY    41  17  38 N16G24    30.38R
$$

ILZ003-004-008-010-011-017-018-312300-
NORTH CENTRAL ILLINOIS

CITY           SKY/WX    TMP DP  RH WIND       PRES   REMARKS
ROCKFORD       MOCLDY    39  18  42 N20G35    30.36R WCI  29
FREEPORT*      MOCLDY    36  17  46 N14G29    30.37R WCI  27
ROCHELLE*      MOCLDY    37  19  48 N17G28    30.33R WCI  27
DE KALB*       CLOUDY    36  18  48 N22G32    30.31R WCI  25
PERU*          MOCLDY    40  20  44 N24G30    30.33R
$$

ILZ005-006-012>014-019>023-312300-
NORTHEAST ILLINOIS

CITY           SKY/WX    TMP DP  RH WIND       PRES   REMARKS
CHICAGO-OHARE  CLOUDY    38  20  48 N29G38    30.25R WCI  26
CHICAGO-MIDWAY LGT SNOW  36  30  79 N22G33    30.25R WCI  25
AURORA         CLOUDY    39  18  42 N21G36    30.29R WCI  29
LANSING*       CLOUDY    39  29  68 N29G40    30.20R WCI  28
JOLIET*        CLOUDY    39  21  47 N25G32    30.26R WCI  28
WAUKEGAN       CLOUDY    37  21  52 N13G35    30.27R WCI  29
DUPAGE AIRPORT CLOUDY    39  19  44 N29G43    30.27R WCI  27
KANKAKEE*      CLOUDY    39  26  59 N21G35    30.22R WCI  29
WHEELING       CLOUDY    40  20  44 N21G36    30.28R
MORRIS*        MOCLDY    40  22  50 N14G22    30.27R
ROMEOVILLE*    MOCLDY    38  20  47 N20G32    30.25R WCI  29
NORTHERLY ISL    N/A     40  30  68 MISG        N/A
$$

LMZ740>746-312300-
SOUTHERN LAKE MICHIGAN

STATION/POSITION SKY/WX   TEMP    WIND        PRES    VSBY  WAVE
                          AIR SEA DIR/SP/G                  HT/PER
                          (F)     (DEG/KT/KT) (MB)    (MI)  (FT/S)
SOUTHERN BUOY              40 47  350/ 33/ 41 1023.0R        15/ 8
WAUKEGAN HARBOR            38     360/ 28/ 36   N/A
HARRISON CRIB              39     360/ 43/ 53   N/A
BURNHAM HARBOR             40     350/ 28/ 35   N/A
CALUMET HARBOR             41     350/ 28/ 40 1022.1R
MICHIGAN CITY              40     340/ 44/ 51   N/A
$$

ILZ025>027-034>036-040-047-049-050-058-095>099-312300-
WEST-CENTRAL ILLINOIS

CITY           SKY/WX    TMP DP  RH WIND       PRES   REMARKS
QUINCY         SUNNY     42  18  37 N17G26    30.36R
GALESBURG*     PTCLDY    41  21  44 N21       30.35R
MACOMB*        CLEAR     43  20  39 N21G26    30.37R
JACKSONVILLE*  CLEAR     45  20  37 N22       30.32R
PITTSFIELD*    SUNNY     44  21  40 NW15G24   30.35R
$$

ILZ028>032-037-038-041>044-048-051>054-059>061-312300-
CENTRAL ILLINOIS

CITY           SKY/WX    TMP DP  RH WIND       PRES   REMARKS
PONTIAC        MOCLDY    41  22  47 N25G36    30.28R
BLOOMINGTON    MOCLDY    39  22  51 N24G36    30.28R WCI  28
DECATUR        FAIR      41  23  48 N24G36    30.26R
PEORIA         CLEAR     43  19  38 N13G25    30.32R
LACON*         CLEAR     40  18  41 N21G26    30.32R
LINCOLN*       PTCLDY    43  22  43 N17G26    30.29R
SPRINGFIELD    PTCLDY    44  20  38 N18G31    30.30R
TAYLORVILLE    MOCLDY    41  23  48 N23G32    30.28R
$$

ILZ033-039-045-046-055>057-062-063-312300-
EAST-CENTRAL ILLINOIS

CITY           SKY/WX    TMP DP  RH WIND       PRES   REMARKS
CHAMPAIGN      PTCLDY    41  24  51 N28G44    30.20R
DANVILLE*      CLOUDY    39  26  58 N30G37    30.13R WCI  27
RANTOUL*       CLOUDY    41  24  50 N24G36    30.21R
MATTOON        CLOUDY    40  23  50 N29G41    30.20R
PARIS*         CLOUDY    40  26  57 NW26G39   30.16R
$$

ILZ079-100>102-312300-
SOUTHWEST ILLINOIS

CITY           SKY/WX    TMP DP  RH WIND       PRES   REMARKS
ALTON          MOSUNNY   45  12  26 NW13G25   30.30R
BELLEVILLE     MOSUNNY   44  21  39 N8G26     30.28R
CAHOKIA*       MOSUNNY   46  22  38 N18G31    30.31R
SPARTA*        SUNNY     44  22  41 N16G29    30.29R
$$

ILZ064>066-069>071-074>076-080>082-084>086-088>090-092>094-312300-
SOUTH-CENTRAL ILLINOIS

CITY           SKY/WX    TMP DP  RH WIND       PRES   REMARKS
CARBONDALE     PTSUNNY   46  22  38 NW23G33   30.25R
CAIRO*         MOSUNNY   49  22  35 NW18G26   30.24R
EFFINGHAM*     CLOUDY    42  22  44 N15G28    30.23R
MARION         PTCLDY    45  23  42 N20       30.25R
MT. VERNON     CLOUDY    45  23  42 N9G21     30.24R
CENTRALIA*     MOCLDY    44  22  42 N17G26    30.25R
SALEM*         MOCLDY    46  25  43 N22G31    30.25R
METROPOLIS*    CLEAR     46  26  46 N16G28    30.22R
$$

ILZ067-068-072-073-078-083-087-091-312300-
SOUTHEAST ILLINOIS

CITY           SKY/WX    TMP DP  RH WIND       PRES   REMARKS
LAWRENCEVILLE  CLOUDY    38  33  82 NW16      30.16R WCI  29
FLORA*         PTCLDY    44  25  47 NW23G32   30.22R
FAIRFIELD*     MOCLDY    44  24  45 N14G26    30.20R
HARRISBURG*    MOCLDY    45  24  43 NW14G25   30.23R
ROBINSON*      CLOUDY    41  33  72 NW18G28   30.17F
CARMI*         PTCLDY    46  28  50 NW22G36   30.19R
$$

ABBREVIATIONS USED IN REMARKS
   TC - TEMPERATURE IN CELSIUS
  WCI - WIND CHILL INDEX
   HX - HEAT INDEX
  VSB - VISIBILITY
$$




USA.gov is the U.S. government's official web portal to all federal, state and local government web resources and services.